Tracking 33203 objects as of 15-Feb-2026
HD Live streaming from Space Station
objects crossing your sky now

CZ-6A DEB

Track CZ-6A DEB now!
10-day predictions


NORAD ID: 54448
Int'l Code: 2022-151FY
Perigee: 818.1 km
Apogee: 853.8 km
Inclination: 98.8 °
Period: 101.5 minutes
Semi major axis: 7206 km
RCS: Unknown
Launch date: November 11, 2022
Source: People's Republic of China (PRC)
Launch site: Taiyaun Space Center, China (TSC)

Note: This is SATELLITE DEBRIS
Your satellite tracking list
Your tracking list is empty




NASA's NSSDC Master Catalog

Two Line Element Set (TLE):
1 54448U 22151FY  26046.49570588  .00000586  00000-0  30105-3 0  9991
2 54448  98.7671  57.4364 0024816 334.8547  25.1419 14.18974539168591
Source of the keplerian elements: AFSPC